Falls City, NE

10:26 AM CST on December 04, 2016 (GMT -0600)
Brenner

Weather History for KFNB - November, 2011

Change the Weather History Date:

Tuesday, November 8, 2011

  Actual Average Record
Temperature  
Mean Temperature 39 °F -  
Max Temperature 45 °F 57 °F 81 °F (1980)
Min Temperature 33 °F 34 °F -4 °F (1991)
Degree Days  
Heating Degree Days 26    
Moisture  
Dew Point 40 °F    
Average Humidity 97    
Maximum Humidity 100    
Minimum Humidity 90    
Precipitation  
Precipitation 0.92 in - - ()
Sea Level Pressure  
Sea Level Pressure 29.99 in    
Wind  
Wind Speed 11 mph (NNE)    
Max Wind Speed 23 mph    
Max Gust Speed 36 mph    
Visibility 5 miles    
Events Rain , Snow    
Averages and records for this station are not official NWS values.
T = Trace of Precipitation, MM = Missing Value Source: NWS Daily Summary

Daily Weather History Graph

Daily Weather History Graph

Search for Another Location

Airport or City:

Trip Planner

Search our weather history database for the weather conditions in past years. The results will help you decide how hot, cold, wet, or windy it might be!

Date:

Astronomy

Nov. 08, 2011 Rise Set
Actual Time 6:59 AM CST 5:12 PM CST
Civil Twilight 6:30 AM CST 5:40 PM CST
Nautical Twilight 5:58 AM CST 6:13 PM CST
Astronomical Twilight 5:26 AM CST 6:45 PM CST
Moon 3:52 PM CST (11/8) 4:59 AM CST (11/8)
Length of Visible Light 11h 10m
Length of Day
10h 13m
Waxing Gibbous, 96% of the Moon is Illuminated
Nov 8
Waxing Gibbous
Nov 10
Full
Nov 18
Last Quarter
Nov 25
New
Dec 2
First Quarter

Hourly Weather History & Observations

Time (CST) Temp. Windchill Dew Point Humidity Pressure Visibility Wind Dir Wind Speed Gust Speed Precip Events Conditions
12:53 AM 45.0 °F 40.1 °F 42.1 °F 90% 29.99 in 10.0 mi NNE 9.2 mph - N/A   Overcast
1:53 AM 45.0 °F 39.3 °F 42.1 °F 90% 29.97 in 10.0 mi NE 11.5 mph 19.6 mph N/A   Overcast
2:53 AM 45.0 °F 39.3 °F 42.1 °F 90% 29.98 in 6.0 mi NNE 11.5 mph 17.3 mph 0.00 in Rain Light Rain
3:24 AM 44.6 °F 39.7 °F 42.8 °F 93% 29.97 in 5.0 mi North 9.2 mph 17.3 mph 0.01 in   Overcast
3:32 AM 44.6 °F 39.7 °F 42.8 °F 93% 29.97 in 5.0 mi NNE 9.2 mph - 0.01 in Rain Light Rain
3:36 AM 44.6 °F 39.7 °F 42.8 °F 93% 29.98 in 4.0 mi NNE 9.2 mph - 0.01 in Rain Light Rain
3:43 AM 44.6 °F 39.2 °F 42.8 °F 93% 29.98 in 4.0 mi NNE 10.4 mph - N/A Rain Light Rain
3:51 AM 44.6 °F 39.7 °F 42.8 °F 93% 29.97 in 4.0 mi NNE 9.2 mph - 0.01 in Rain Light Rain
3:53 AM 44.1 °F 38.6 °F 43.0 °F 96% 29.98 in 4.0 mi NNE 10.4 mph - 0.01 in Rain Light Rain
4:53 AM 43.0 °F 36.8 °F 43.0 °F 100% 29.97 in 4.0 mi NNE 11.5 mph 19.6 mph 0.00 in Rain Light Rain
5:53 AM 43.0 °F 37.2 °F 42.1 °F 97% 29.98 in 4.0 mi NE 10.4 mph 18.4 mph 0.01 in Rain Light Rain
6:53 AM 43.0 °F 37.2 °F 42.1 °F 97% 30.00 in 3.0 mi NE 10.4 mph - 0.02 in Rain Light Rain
7:53 AM 43.0 °F 37.7 °F 42.1 °F 97% 30.01 in 3.0 mi NE 9.2 mph 17.3 mph 0.01 in Rain Light Rain
8:02 AM 42.8 °F 37.0 °F 42.8 °F 100% 30.00 in 2.0 mi NE 10.4 mph 18.4 mph 0.00 in Rain Light Rain
8:17 AM 42.8 °F 37.5 °F 42.8 °F 100% 30.00 in 3.0 mi NE 9.2 mph 17.3 mph 0.00 in   Overcast
8:26 AM 42.8 °F 37.5 °F 42.8 °F 100% 30.00 in 2.5 mi NE 9.2 mph - 0.00 in Rain Light Rain
8:53 AM 43.0 °F 37.2 °F 42.1 °F 97% 30.03 in 3.0 mi NNE 10.4 mph - 0.01 in Rain Light Rain
9:04 AM 42.8 °F 38.6 °F 42.8 °F 100% 30.02 in 2.0 mi NE 6.9 mph 17.3 mph 0.01 in Rain Light Rain
9:11 AM 42.8 °F 36.6 °F 42.8 °F 100% 30.01 in 1.8 mi NE 11.5 mph - 0.01 in Rain Light Rain
9:21 AM 42.8 °F 38.0 °F 42.8 °F 100% 30.01 in 2.5 mi NE 8.1 mph 17.3 mph 0.02 in Rain Light Rain
9:31 AM 42.8 °F 38.0 °F 42.8 °F 100% 30.01 in 3.0 mi NNE 8.1 mph - 0.02 in Rain Light Rain
9:53 AM 43.0 °F 37.2 °F 42.1 °F 97% 30.01 in 5.0 mi NE 10.4 mph 17.3 mph 0.02 in Rain Light Rain
10:23 AM 44.6 °F 38.1 °F 42.8 °F 93% 30.00 in 10.0 mi NE 13.8 mph 21.9 mph 0.00 in   Overcast
10:53 AM 44.1 °F 38.6 °F 42.1 °F 93% 30.01 in 10.0 mi NE 10.4 mph 18.4 mph 0.00 in   Overcast
11:53 AM 44.1 °F 39.5 °F 42.1 °F 93% 30.01 in 10.0 mi NE 8.1 mph - 0.00 in   Overcast
12:53 PM 44.1 °F 40.1 °F 43.0 °F 96% 30.00 in 5.0 mi NE 6.9 mph - 0.02 in Rain Rain
1:32 PM 44.6 °F 38.1 °F 42.8 °F 93% 29.95 in 4.0 mi NNE 13.8 mph 21.9 mph 0.10 in Rain Rain
1:53 PM 44.1 °F 37.4 °F 43.0 °F 96% 29.96 in 6.0 mi NNE 13.8 mph 20.7 mph 0.13 in Rain Light Rain
2:53 PM 44.1 °F 39.0 °F 42.1 °F 93% 29.97 in 7.0 mi North 9.2 mph 19.6 mph 0.04 in Rain Light Rain
3:40 PM 42.8 °F 35.4 °F 42.8 °F 100% 29.95 in 2.5 mi NNE 15.0 mph 21.9 mph 0.13 in Rain Heavy Rain
3:47 PM 42.8 °F 35.4 °F 42.8 °F 100% 29.95 in 3.0 mi NNE 15.0 mph 21.9 mph 0.14 in Rain Rain
3:53 PM 43.0 °F 35.4 °F 42.1 °F 97% 29.96 in 5.0 mi NNE 16.1 mph 26.5 mph 0.15 in Rain Light Rain
4:00 PM 42.8 °F 36.2 °F 42.8 °F 100% 29.95 in 8.0 mi NNE 12.7 mph 19.6 mph 0.00 in Rain Light Rain
4:10 PM 42.8 °F 35.1 °F 42.8 °F 100% 29.94 in 7.0 mi North 16.1 mph 21.9 mph 0.01 in Rain Light Rain
4:19 PM 42.8 °F 35.4 °F 42.8 °F 100% 29.94 in 8.0 mi North 15.0 mph 24.2 mph 0.02 in Rain Light Rain
4:41 PM 42.8 °F 36.2 °F 42.8 °F 100% 29.94 in 9.0 mi North 12.7 mph 21.9 mph 0.03 in Rain Light Rain
4:53 PM 43.0 °F 35.7 °F 42.1 °F 97% 29.96 in 9.0 mi NNE 15.0 mph 25.3 mph 0.03 in Rain Light Rain
5:53 PM 42.1 °F 33.3 °F 41.0 °F 96% 29.97 in 6.0 mi North 19.6 mph 29.9 mph 0.09 in Rain Light Rain
6:53 PM 39.0 °F 29.6 °F 37.9 °F 96% 30.00 in 7.0 mi North 18.4 mph 27.6 mph 0.06 in Rain Light Rain
7:42 PM 35.6 °F 24.0 °F 35.6 °F 100% 29.97 in 2.5 mi North 23.0 mph 35.7 mph 0.11 in Rain Heavy Rain
7:53 PM 35.1 °F 24.5 °F 35.1 °F 100% 29.99 in 3.0 mi North 18.4 mph 32.2 mph 0.15 in Rain Heavy Rain
7:55 PM 35.6 °F 24.5 °F 33.8 °F 93% 29.97 in 3.0 mi North 20.7 mph 28.8 mph 0.01 in Rain Heavy Rain
8:53 PM 33.8 °F 23.9 °F 33.8 °F 100% 29.99 in 4.0 mi North 15.0 mph 25.3 mph N/A Snow Light Snow
9:10 PM 33.8 °F 23.2 °F 33.8 °F 100% 30.00 in 2.0 mi North 17.3 mph 27.6 mph 0.03 in Snow Light Snow
9:53 PM 33.1 °F 23.0 °F 33.1 °F 100% 30.02 in 2.5 mi North 15.0 mph 20.7 mph 0.08 in Snow Light Snow
10:09 PM 33.8 °F 25.3 °F 33.8 °F 100% 30.00 in 1.5 mi NNW 11.5 mph 18.4 mph 0.01 in Snow Light Snow
10:34 PM 33.8 °F 25.3 °F 33.8 °F 100% 30.00 in 2.5 mi NNW 11.5 mph - 0.02 in Snow Light Snow
10:41 PM 33.8 °F 25.3 °F 33.8 °F 100% 30.01 in 3.0 mi NNW 11.5 mph 19.6 mph 0.03 in Snow Light Snow
10:50 PM 33.8 °F 24.8 °F 33.8 °F 100% 30.01 in 2.5 mi North 12.7 mph 19.6 mph 0.04 in Snow Light Snow
10:53 PM 33.1 °F 23.4 °F 33.1 °F 100% 30.03 in 2.5 mi North 13.8 mph 21.9 mph 0.04 in Snow Light Snow
11:26 PM 33.8 °F 25.3 °F 33.8 °F 100% 30.02 in 1.8 mi NNW 11.5 mph - 0.04 in Snow Light Snow
11:53 PM 33.1 °F 23.9 °F 33.1 °F 100% 30.04 in 1.8 mi NNW 12.7 mph - 0.05 in Snow Light Snow